Time,TemperatureF,DewpointF,PressureIn,WindDirection,WindDirectionDegrees,WindSpeedMPH,WindSpeedGustMPH,Humidity,HourlyPrecipIn,Conditions,Clouds,dailyrainin,SoftwareType,DateUTC
2013-02-18 00:02:00,17.0,12.0,-100.00,West,264,0.0,14.0,78,0.00,,,-99.99,,2013-02-18 05:02:00,
2013-02-18 00:11:00,17.0,12.0,-100.00,SW,218,1.0,14.0,80,0.00,,,-99.99,,2013-02-18 05:11:00,
2013-02-18 00:21:00,16.0,12.0,-100.00,SW,218,0.0,14.0,80,0.00,,,-99.99,,2013-02-18 05:21:00,
2013-02-18 00:32:00,16.0,12.0,-100.00,SW,220,1.0,14.0,80,0.00,,,-99.99,,2013-02-18 05:32:00,
2013-02-18 00:42:00,16.0,12.0,-100.00,SW,225,1.0,14.0,81,0.00,,,-99.99,,2013-02-18 05:42:00,
2013-02-18 00:52:00,16.0,12.0,-100.00,WNW,289,1.0,14.0,81,0.00,,,-99.99,,2013-02-18 05:52:00,
2013-02-18 01:02:00,13.0,9.0,-100.00,NNW,347,0.0,14.0,81,0.00,,,-99.99,,2013-02-18 06:02:00,
2013-02-18 01:11:00,16.0,12.0,-100.00,SSW,201,0.0,14.0,82,0.00,,,-99.99,,2013-02-18 06:11:00,
2013-02-18 01:22:00,15.0,12.0,-100.00,WSW,245,1.0,14.0,82,0.00,,,-99.99,,2013-02-18 06:22:00,
2013-02-18 01:32:00,15.0,10.0,-100.00,WSW,244,0.0,14.0,82,0.00,,,-99.99,,2013-02-18 06:32:00,
2013-02-18 01:42:00,15.0,12.0,-100.00,SSW,192,0.0,14.0,84,0.00,,,-99.99,,2013-02-18 06:42:00,
2013-02-18 01:51:00,14.0,10.0,-100.00,SW,220,0.0,14.0,82,0.00,,,-99.99,,2013-02-18 06:51:00,
2013-02-18 02:02:00,15.0,12.0,-100.00,WSW,254,0.0,14.0,84,0.00,,,-99.99,,2013-02-18 07:02:00,
2013-02-18 02:11:00,14.0,10.0,-100.00,West,259,1.0,14.0,84,0.00,,,-99.99,,2013-02-18 07:11:00,
2013-02-18 02:22:00,14.0,10.0,-100.00,West,262,1.0,14.0,84,0.00,,,-99.99,,2013-02-18 07:22:00,
2013-02-18 02:32:00,13.0,10.0,-100.00,West,276,0.0,14.0,84,0.00,,,-99.99,,2013-02-18 07:32:00,
2013-02-18 02:42:00,13.0,10.0,-100.00,West,275,0.0,14.0,84,0.00,,,-99.99,,2013-02-18 07:42:00,
2013-02-18 02:51:00,13.0,10.0,-100.00,SW,221,0.0,14.0,84,0.00,,,-99.99,,2013-02-18 07:51:00,
2013-02-18 03:01:00,13.0,10.0,-100.00,West,273,1.0,14.0,85,0.00,,,-99.99,,2013-02-18 08:01:00,
2013-02-18 03:11:00,13.0,10.0,-100.00,West,275,0.0,14.0,85,0.00,,,-99.99,,2013-02-18 08:11:00,
2013-02-18 03:21:00,13.0,10.0,-100.00,WSW,251,0.0,14.0,85,0.00,,,-99.99,,2013-02-18 08:21:00,
2013-02-18 03:32:00,13.0,10.0,-100.00,West,259,1.0,14.0,85,0.00,,,-99.99,,2013-02-18 08:32:00,
2013-02-18 03:42:00,13.0,10.0,-100.00,West,262,1.0,14.0,85,0.00,,,-99.99,,2013-02-18 08:42:00,
2013-02-18 03:52:00,13.0,10.0,-100.00,WSW,254,1.0,14.0,85,0.00,,,-99.99,,2013-02-18 08:52:00,
2013-02-18 04:03:00,13.0,10.0,-100.00,West,276,1.0,14.0,85,0.00,,,-99.99,,2013-02-18 09:03:00,
2013-02-18 04:11:00,12.0,10.0,-100.00,West,269,0.0,14.0,85,0.00,,,-99.99,,2013-02-18 09:11:00,
2013-02-18 04:22:00,13.0,10.0,-100.00,SW,223,0.0,14.0,85,0.00,,,-99.99,,2013-02-18 09:22:00,
2013-02-18 04:32:00,12.0,9.0,-100.00,West,276,1.0,14.0,85,0.00,,,-99.99,,2013-02-18 09:32:00,
2013-02-18 04:42:00,13.0,10.0,-100.00,NE,39,0.0,14.0,86,0.00,,,-99.99,,2013-02-18 09:42:00,
2013-02-18 04:52:00,12.0,10.0,-100.00,WNW,296,0.0,14.0,86,0.00,,,-99.99,,2013-02-18 09:52:00,
2013-02-18 05:01:00,13.0,10.0,-100.00,West,264,0.0,0.0,86,0.00,,,-99.99,,2013-02-18 10:01:00,
2013-02-18 05:11:00,9.0,7.0,-100.00,WSW,238,0.0,1.0,85,0.00,,,-99.99,,2013-02-18 10:11:00,
2013-02-18 05:22:00,9.0,7.0,-100.00,NNW,337,0.0,1.0,85,0.00,,,-99.99,,2013-02-18 10:22:00,
2013-02-18 05:32:00,9.0,7.0,-100.00,WSW,256,1.0,1.0,85,0.00,,,-99.99,,2013-02-18 10:32:00,
2013-02-18 05:42:00,9.0,7.0,-100.00,WSW,247,1.0,1.0,85,0.00,,,-99.99,,2013-02-18 10:42:00,
2013-02-18 05:52:00,10.0,7.0,-100.00,North,9,0.0,1.0,85,0.00,,,-99.99,,2013-02-18 10:52:00,
2013-02-18 06:02:00,9.0,7.0,-100.00,West,273,1.0,1.0,85,0.00,,,-99.99,,2013-02-18 11:02:00,
2013-02-18 06:12:00,10.0,7.0,-100.00,North,1,0.0,1.0,85,0.00,,,-99.99,,2013-02-18 11:12:00,
2013-02-18 06:22:00,12.0,10.0,-100.00,NW,312,1.0,1.0,86,0.00,,,-99.99,,2013-02-18 11:22:00,
2013-02-18 06:32:00,9.0,7.0,-100.00,West,269,1.0,1.0,85,0.00,,,-99.99,,2013-02-18 11:32:00,
2013-02-18 06:42:00,10.0,7.0,-100.00,WSW,258,0.0,1.0,86,0.00,,,-99.99,,2013-02-18 11:42:00,
2013-02-18 06:52:00,9.0,7.0,-100.00,SE,134,0.0,1.0,85,0.00,,,-99.99,,2013-02-18 11:52:00,
2013-02-18 07:02:00,9.0,7.0,-100.00,WNW,302,0.0,1.0,86,0.00,,,-99.99,,2013-02-18 12:02:00,
2013-02-18 07:12:00,9.0,7.0,-100.00,SW,230,1.0,1.0,86,0.00,,,-99.99,,2013-02-18 12:12:00,
2013-02-18 07:22:00,13.0,10.0,-100.00,WNW,283,1.0,1.0,88,0.00,,,-99.99,,2013-02-18 12:22:00,
2013-02-18 07:32:00,13.0,10.0,-100.00,WSW,256,1.0,1.0,88,0.00,,,-99.99,,2013-02-18 12:32:00,
2013-02-18 07:42:00,13.0,10.0,-100.00,SSW,211,2.0,2.0,88,0.00,,,-99.99,,2013-02-18 12:42:00,
2013-02-18 07:52:00,13.0,12.0,-100.00,SW,234,1.0,2.0,88,0.00,,,-99.99,,2013-02-18 12:52:00,
2013-02-18 08:03:00,14.0,12.0,-100.00,WSW,244,1.0,2.0,89,0.00,,,-99.99,,2013-02-18 13:03:00,
2013-02-18 08:12:00,14.0,12.0,-100.00,WNW,285,2.0,2.0,88,0.00,,,-99.99,,2013-02-18 13:12:00,
2013-02-18 08:23:00,12.0,10.0,-100.00,West,265,2.0,2.0,85,0.00,,,-99.99,,2013-02-18 13:23:00,
2013-02-18 08:32:00,16.0,14.0,-100.00,WSW,256,2.0,2.0,86,0.00,,,-99.99,,2013-02-18 13:32:00,
2013-02-18 08:42:00,17.0,14.0,-100.00,WSW,244,2.0,2.0,85,0.00,,,-99.99,,2013-02-18 13:42:00,
2013-02-18 08:53:00,18.0,16.0,-100.00,WSW,242,2.0,4.0,84,0.00,,,-99.99,,2013-02-18 13:53:00,
2013-02-18 09:02:00,17.0,14.0,-100.00,NNW,328,2.0,4.0,81,0.00,,,-99.99,,2013-02-18 14:02:00,
2013-02-18 09:11:00,20.0,16.0,-100.00,NNE,29,1.0,4.0,81,0.00,,,-99.99,,2013-02-18 14:11:00,
2013-02-18 09:22:00,20.0,16.0,-100.00,North,352,2.0,4.0,77,0.00,,,-99.99,,2013-02-18 14:22:00,
2013-02-18 09:33:00,23.0,18.0,-100.00,WNW,288,2.0,4.0,78,0.00,,,-99.99,,2013-02-18 14:33:00,
2013-02-18 09:42:00,21.0,14.0,-100.00,WNW,296,2.0,4.0,73,0.00,,,-99.99,,2013-02-18 14:42:00,
2013-02-18 09:53:00,24.0,18.0,-100.00,WNW,293,1.0,4.0,71,0.00,,,-99.99,,2013-02-18 14:53:00,
2013-02-18 10:02:00,24.0,16.0,-100.00,NW,313,2.0,4.0,69,0.00,,,-99.99,,2013-02-18 15:02:00,
2013-02-18 10:12:00,24.0,16.0,-100.00,NW,304,2.0,4.0,68,0.00,,,-99.99,,2013-02-18 15:12:00,
2013-02-18 10:22:00,26.0,16.0,-100.00,South,183,2.0,4.0,63,0.00,,,-99.99,,2013-02-18 15:22:00,
2013-02-18 10:32:00,25.0,14.0,-100.00,NNW,340,2.0,4.0,60,0.00,,,-99.99,,2013-02-18 15:32:00,
2013-02-18 10:42:00,27.0,16.0,-100.00,NW,324,2.0,4.0,60,0.00,,,-99.99,,2013-02-18 15:42:00,
2013-02-18 10:52:00,26.0,14.0,-100.00,NW,314,2.0,4.0,58,0.00,,,-99.99,,2013-02-18 15:52:00,
2013-02-18 11:03:00,27.0,14.0,-100.00,NNW,331,3.0,4.0,55,0.00,,,-99.99,,2013-02-18 16:03:00,
2013-02-18 11:12:00,29.0,16.0,-100.00,NW,309,3.0,4.0,53,0.00,,,-99.99,,2013-02-18 16:12:00,
2013-02-18 11:22:00,29.0,14.0,-100.00,WNW,292,2.0,4.0,51,0.00,,,-99.99,,2013-02-18 16:22:00,
2013-02-18 11:32:00,32.0,16.0,-100.00,NNW,338,2.0,4.0,47,0.00,,,-99.99,,2013-02-18 16:32:00,
2013-02-18 11:43:00,31.0,14.0,-100.00,West,276,6.0,8.0,45,0.00,,,-99.99,,2013-02-18 16:43:00,
2013-02-18 12:04:00,32.0,14.0,-100.00,West,272,6.0,8.0,45,0.00,,,-99.99,,2013-02-18 17:04:00,
2013-02-18 12:12:00,34.0,16.0,-100.00,NNW,347,4.0,8.0,45,0.00,,,-99.99,,2013-02-18 17:12:00,
2013-02-18 12:22:00,36.0,16.0,-100.00,West,278,3.0,8.0,42,0.00,,,-99.99,,2013-02-18 17:22:00,
2013-02-18 12:33:00,36.0,16.0,-100.00,NW,316,3.0,8.0,41,0.00,,,-99.99,,2013-02-18 17:33:00,
2013-02-18 12:42:00,36.0,16.0,-100.00,WNW,293,4.0,8.0,41,0.00,,,-99.99,,2013-02-18 17:42:00,
2013-02-18 12:52:00,39.0,18.0,-100.00,SW,225,4.0,8.0,40,0.00,,,-99.99,,2013-02-18 17:52:00,
2013-02-18 13:02:00,38.0,16.0,-100.00,NW,321,2.0,8.0,40,0.00,,,-99.99,,2013-02-18 18:02:00,
2013-02-18 13:12:00,41.0,18.0,-100.00,NW,314,4.0,8.0,38,0.00,,,-99.99,,2013-02-18 18:12:00,
2013-02-18 13:23:00,42.0,19.0,-100.00,NNW,334,5.0,8.0,38,0.00,,,-99.99,,2013-02-18 18:23:00,
2013-02-18 13:33:00,42.0,18.0,-100.00,NNW,348,4.0,8.0,36,0.00,,,-99.99,,2013-02-18 18:33:00,
2013-02-18 13:42:00,40.0,18.0,-100.00,NW,319,4.0,8.0,37,0.00,,,-99.99,,2013-02-18 18:42:00,
2013-02-18 13:52:00,41.0,18.0,-100.00,WNW,303,7.0,10.0,37,0.00,,,-99.99,,2013-02-18 18:52:00,
2013-02-18 14:03:00,41.0,18.0,-100.00,West,278,6.0,10.0,37,0.00,,,-99.99,,2013-02-18 19:03:00,
2013-02-18 14:13:00,41.0,18.0,-100.00,West,259,7.0,10.0,37,0.00,,,-99.99,,2013-02-18 19:13:00,
2013-02-18 14:22:00,43.0,19.0,-100.00,NW,320,6.0,10.0,37,0.00,,,-99.99,,2013-02-18 19:22:00,
2013-02-18 14:33:00,42.0,18.0,-100.00,NW,307,6.0,10.0,36,0.00,,,-99.99,,2013-02-18 19:33:00,
2013-02-18 14:52:00,43.0,19.0,-100.00,NW,320,6.0,10.0,37,0.00,,,-99.99,,2013-02-18 19:52:00,
2013-02-18 15:02:00,43.0,21.0,-100.00,NW,326,6.0,10.0,38,0.00,,,-99.99,,2013-02-18 20:02:00,
2013-02-18 15:13:00,45.0,21.0,-100.00,NW,312,5.0,10.0,37,0.00,,,-99.99,,2013-02-18 20:13:00,
2013-02-18 15:23:00,45.0,21.0,-100.00,East,96,6.0,10.0,38,0.00,,,-99.99,,2013-02-18 20:23:00,
2013-02-18 15:33:00,44.0,21.0,-100.00,NW,320,6.0,10.0,38,0.00,,,-99.99,,2013-02-18 20:33:00,
2013-02-18 15:42:00,44.0,21.0,-100.00,NW,320,7.0,10.0,38,0.00,,,-99.99,,2013-02-18 20:42:00,
2013-02-18 15:52:00,46.0,21.0,-100.00,NW,326,6.0,10.0,37,0.00,,,-99.99,,2013-02-18 20:52:00,
2013-02-18 16:03:00,46.0,23.0,-100.00,North,360,6.0,10.0,38,0.00,,,-99.99,,2013-02-18 21:03:00,
2013-02-18 16:12:00,46.0,23.0,-100.00,North,350,6.0,10.0,37,0.00,,,-99.99,,2013-02-18 21:12:00,
2013-02-18 16:22:00,47.0,23.0,-100.00,NW,307,4.0,10.0,37,0.00,,,-99.99,,2013-02-18 21:22:00,
2013-02-18 16:33:00,47.0,23.0,-100.00,NNW,331,3.0,10.0,38,0.00,,,-99.99,,2013-02-18 21:33:00,
2013-02-18 16:43:00,48.0,23.0,-100.00,North,4,4.0,10.0,37,0.00,,,-99.99,,2013-02-18 21:43:00,
2013-02-18 16:52:00,48.0,23.0,-100.00,North,4,4.0,10.0,37,0.00,,,-99.99,,2013-02-18 21:52:00,
2013-02-18 17:03:00,48.0,25.0,-100.00,West,279,6.0,10.0,40,0.00,,,-99.99,,2013-02-18 22:03:00,
2013-02-18 17:13:00,48.0,25.0,-100.00,NW,319,5.0,10.0,40,0.00,,,-99.99,,2013-02-18 22:13:00,
2013-02-18 17:23:00,48.0,27.0,-100.00,NW,317,4.0,10.0,40,0.00,,,-99.99,,2013-02-18 22:23:00,
2013-02-18 17:33:00,48.0,27.0,-100.00,North,0,5.0,10.0,40,0.00,,,-99.99,,2013-02-18 22:33:00,
2013-02-18 17:43:00,48.0,27.0,-100.00,NNW,338,6.0,10.0,41,0.00,,,-99.99,,2013-02-18 22:43:00,
2013-02-18 17:53:00,48.0,27.0,-100.00,NW,319,4.0,10.0,42,0.00,,,-99.99,,2013-02-18 22:53:00,
2013-02-18 18:03:00,48.0,27.0,-100.00,NW,307,4.0,10.0,41,0.00,,,-99.99,,2013-02-18 23:03:00,
2013-02-18 18:12:00,48.0,27.0,-100.00,NW,326,4.0,10.0,42,0.00,,,-99.99,,2013-02-18 23:12:00,
2013-02-18 18:23:00,47.0,27.0,-100.00,NW,321,2.0,10.0,44,0.00,,,-99.99,,2013-02-18 23:23:00,
2013-02-18 18:33:00,47.0,27.0,-100.00,NW,321,2.0,10.0,44,0.00,,,-99.99,,2013-02-18 23:33:00,
2013-02-18 18:43:00,46.0,27.0,-100.00,WNW,285,3.0,10.0,45,0.00,,,-99.99,,2013-02-18 23:43:00,
2013-02-18 18:52:00,46.0,27.0,-100.00,WNW,299,2.0,10.0,45,0.00,,,-99.99,,2013-02-18 23:52:00,
2013-02-18 19:03:00,45.0,27.0,-100.00,WNW,300,3.0,10.0,46,0.00,,,-99.99,,2013-02-19 00:03:00,
2013-02-18 19:12:00,44.0,27.0,-100.00,WNW,285,4.0,10.0,49,0.00,,,-99.99,,2013-02-19 00:12:00,
2013-02-18 19:23:00,44.0,27.0,-100.00,West,280,4.0,10.0,50,0.00,,,-99.99,,2013-02-19 00:23:00,
2013-02-18 19:35:00,41.0,27.0,-100.00,West,272,4.0,10.0,54,0.00,,,-99.99,,2013-02-19 00:35:00,
2013-02-18 19:43:00,43.0,27.0,-100.00,West,272,4.0,10.0,50,0.00,,,-99.99,,2013-02-19 00:43:00,
2013-02-18 19:53:00,43.0,27.0,-100.00,WNW,290,4.0,10.0,50,0.00,,,-99.99,,2013-02-19 00:53:00,
2013-02-18 20:03:00,44.0,27.0,-100.00,West,272,3.0,10.0,50,0.00,,,-99.99,,2013-02-19 01:03:00,
2013-02-18 20:14:00,43.0,27.0,-100.00,WSW,240,3.0,10.0,51,0.00,,,-99.99,,2013-02-19 01:14:00,
2013-02-18 20:24:00,43.0,27.0,-100.00,WSW,252,3.0,10.0,51,0.00,,,-99.99,,2013-02-19 01:24:00,
2013-02-18 20:35:00,43.0,28.0,-100.00,NW,310,2.0,10.0,53,0.00,,,-99.99,,2013-02-19 01:35:00,
2013-02-18 20:44:00,44.0,28.0,-100.00,NW,321,3.0,10.0,53,0.00,,,-99.99,,2013-02-19 01:44:00,
2013-02-18 20:54:00,44.0,28.0,-100.00,West,275,1.0,10.0,51,0.00,,,-99.99,,2013-02-19 01:54:00,
2013-02-18 21:04:00,42.0,28.0,-100.00,WSW,242,3.0,10.0,55,0.00,,,-99.99,,2013-02-19 02:04:00,
2013-02-18 21:14:00,44.0,28.0,-100.00,NNW,334,3.0,10.0,53,0.00,,,-99.99,,2013-02-19 02:14:00,
2013-02-18 21:23:00,46.0,30.0,-100.00,NNW,336,3.0,10.0,51,0.00,,,-99.99,,2013-02-19 02:23:00,
2013-02-18 21:35:00,46.0,30.0,-100.00,NW,324,2.0,10.0,53,0.00,,,-99.99,,2013-02-19 02:35:00,
2013-02-18 21:43:00,46.0,30.0,-100.00,NW,312,3.0,10.0,51,0.00,,,-99.99,,2013-02-19 02:43:00,
2013-02-18 21:53:00,47.0,30.0,-100.00,North,4,6.0,10.0,51,0.00,,,-99.99,,2013-02-19 02:53:00,
2013-02-18 22:06:00,47.0,30.0,-100.00,NW,324,7.0,10.0,50,0.00,,,-99.99,,2013-02-19 03:06:00,
2013-02-18 22:15:00,47.0,30.0,-100.00,NNW,340,6.0,10.0,50,0.00,,,-99.99,,2013-02-19 03:15:00,
2013-02-18 22:25:00,47.0,30.0,-100.00,North,1,6.0,10.0,51,0.00,,,-99.99,,2013-02-19 03:25:00,
2013-02-18 22:34:00,47.0,30.0,-100.00,NNW,331,7.0,10.0,50,0.00,,,-99.99,,2013-02-19 03:34:00,
2013-02-18 22:44:00,48.0,30.0,-100.00,NNW,336,8.0,10.0,50,0.00,,,-99.99,,2013-02-19 03:44:00,
2013-02-18 22:53:00,48.0,30.0,-100.00,NW,314,6.0,10.0,49,0.00,,,-99.99,,2013-02-19 03:53:00,
2013-02-18 23:03:00,48.0,30.0,-100.00,NNW,344,6.0,10.0,49,0.00,,,-99.99,,2013-02-19 04:03:00,
2013-02-18 23:14:00,48.0,30.0,-100.00,NNW,331,6.0,10.0,47,0.00,,,-99.99,,2013-02-19 04:14:00,
2013-02-18 23:24:00,49.0,30.0,-100.00,NNW,340,9.0,12.0,46,0.00,,,-99.99,,2013-02-19 04:24:00,
2013-02-18 23:34:00,49.0,30.0,-100.00,NW,321,9.0,12.0,46,0.00,,,-99.99,,2013-02-19 04:34:00,
2013-02-18 23:44:00,49.0,30.0,-100.00,North,350,7.0,12.0,45,0.00,,,-99.99,,2013-02-19 04:44:00,
2013-02-18 23:53:00,49.0,30.0,-100.00,NNW,333,6.0,12.0,45,0.00,,,-99.99,,2013-02-19 04:53:00,